Other Public Products
Issued by NWS Grand Forks, ND

Home | Current Version | Previous Version | Graphics & Text | Print | Product List | Glossary On
Versions: 1 2 3 4 5 6 7 8 9 10 11 12 13 14 15 16 17 18 19 20 21 22 23 24 25 26 27 28 29 30 31 32 33 34 35 36 37 38 39 40 41 42 43 44 45 46 47 48 49 50
000
FPUS83 KFGF 280131
OPUFGF
PRAIRIE TO PINES WEATHER ROUNDUP
NATIONAL WEATHER SERVICE EASTERN NORTH DAKOTA/GRAND FORKS ND
800 PM CDT THU APR 27 2017

 **SATELLITE DATA USED TO AUGMENT SKY COVER AT AUTOMATED STATIONS**
 *****  WEATHER ACROSS EASTERN NORTH DAKOTA  *****

CITY           SKY/WX    TMP DP  RH WIND       PRES   REMARKS
GRAND FORKS    FAIR      39  31  72 E6        29.71R
GRAND FORKS AF MOCLDY    40  31  70 NE6       29.72R
GRAND CITY NWS NOT AVBL
BUXTON           N/A     37  31  79 SE3         N/A
DEVILS LAKE    CLOUDY    43  27  53 N16       29.76R
FARGO          CLOUDY    40  30  67 NE5       29.71R
WAHPETON ARPT  CLOUDY    37  30  75 CALM      29.73R
$$

 *****  WEATHER ACROSS CENTRAL AND WESTERN NORTH DAKOTA  *****

CITY           SKY/WX    TMP DP  RH WIND       PRES   REMARKS
JAMESTOWN      MOCLDY    45  30  55 N13       29.72R
BISMARCK       FAIR      50  24  36 NE9       29.75R
MINOT          FAIR      50  22  33 N12       29.76R
MINOT AFB      FAIR      49  22  34 NE13      29.76R
GARRISON         N/A     48  19  31 NE7       29.75R
WILLISTON      FAIR      51  16  24 E8        29.77R
DICKINSON      FAIR      47  19  33 NE12      29.71R
HETTINGER      FAIR      48  25  40 E10       29.72R
$$

 *****  OTHER OBSERVATIONS NORTHEAST NORTH DAKOTA  *****

CITY           SKY/WX    TMP DP  RH WIND       PRES   REMARKS
WALHALLA       NOT AVBL
LANGDON        CLOUDY    41  28  60 N18G26    29.75R
CAVALIER       FAIR      39  28  65 N16G26    29.76R
GRAFTON        MOCLDY    37  32  81 N17G24    29.77R
CANDO          NOT AVBL
FORT TOTTEN      N/A     45  28  50 N7        29.95S
ROLLA          FAIR      41  27  56 NE16G23   29.79R
RUGBY          NOT AVBL
 ***** THE ABOVE OBSERVATIONS ARE NON NWS ARE NOT QUALITY
        CONTROLLED AND MAY MIS-REPORT RAIN FOR SNOW...
$$

 *****  OTHER OBSERVATIONS SOUTHEAST NORTH DAKOTA *****

CITY           SKY/WX    TMP DP  RH WIND       PRES   REMARKS
COOPERSTOWN    CLOUDY    43  32  65 N15       29.73R
VALLEY CITY    MIX PCPN  43  28  56 N15       29.74R
OAKES          NOT AVBL
GWINNER        CLOUDY    43  36  75 MISG      29.73R
SHEYENNE NWR     N/A     43  30  59 N6        29.95S
BUFFALO          N/A     42  27  56 SE10        N/A
WYNDMERE         N/A     43  36  75 W2          N/A
 ***** THE ABOVE OBSERVATIONS ARE NON NWS ARE NOT QUALITY
       CONTROLLED AND MAY MIS-REPORT RAIN FOR SNOW...
$$

  *****  WEATHER ACROSS NORTHERN MINNESOTA  *****

CITY           SKY/WX    TMP DP  RH WIND       PRES   REMARKS
FLAG ISLAND    CLOUDY    30  25  80 N16       29.66R WCI  19
WARROAD        CLOUDY    30  25  80 N14G20    29.69R WCI  20
ROSEAU         MOCLDY    30  25  80 N13G22    29.70R WCI  20
HALLOCK        MOCLDY    36  28  75 N21G28    29.75R
THF RVR FALLS  CLOUDY    32  26  78 NW8       29.71R WCI  25
HALSTAD          N/A     36  28  74 N3          N/A
FOSSTON        CLOUDY    28  23  80 NW6       29.69R WCI  22
BAUDETTE       CLOUDY    28  23  81 N9        29.63R WCI  19
WASKISH        MIX PCPN  27  25  93 NW9       29.65R WCI  17
CROOKSTON      CLOUDY    34  27  75 CALM      29.73R
$$
  *****  WEATHER ACROSS CENTRAL AND WEST MINNESOTA  *****

CITY           SKY/WX    TMP DP  RH WIND       PRES   REMARKS
BEMIDJI        CLOUDY    29  22  74 W10       29.65R WCI  20
PARK RAPIDS    CLOUDY    31  21  66 NW13      29.65R WCI  21
WADENA         CLOUDY    30  27  86 NW8       29.69R WCI  23
DETROIT LAKES  CLOUDY    32  28  86 NW6       29.71R
MOORHEAD       CLOUDY    37  30  75 N3        29.73R
FERGUS FALLS   CLOUDY    36  27  69 N6        29.72R
ELBOW LAKE     CLOUDY    35  28  76 W6        29.72R
MORRIS MN      CLOUDY    36  27  69 NW6       29.72S
STAPLES        CLOUDY    28  25  86 W7        29.68R WCI  21
WHEATON        CLOUDY    37  28  70 CALM      29.75S
$$
  *****  WEATHER ELSEWHERE ACROSS MINNESOTA  *****

CITY           SKY/WX    TMP DP  RH WIND       PRES   REMARKS
DULUTH         CLOUDY    29  20  69 W13       29.58R WCI  19
INTRNTL FALLS  CLOUDY    28  19  69 NW9       29.59R WCI  19
ELY            CLOUDY    27  19  74 W10       29.55R WCI  17
CLOQUET        CLOUDY    28  19  69 W12G17    29.61R WCI  18
BRAINERD       CLOUDY    31  23  72 NW6       29.67R
HIBBING        CLOUDY    26  18  71 NW12      29.59R WCI  16
ALEXANDRIA     CLOUDY    33  24  69 NW12      29.70R WCI  24
SAINT CLOUD    CLOUDY    33  24  69 NW14      29.69R WCI  23
MINNEAPOLIS    CLOUDY    34  23  64 NW9       29.71R
$$

  *****  WEATHER ACROSS SOUTH DAKOTA  *****

CITY           SKY/WX    TMP DP  RH WIND       PRES   REMARKS
SIOUX FALLS    FAIR      46  32  58 N6        29.73R
BROOKINGS      FAIR      40  27  59 N13       29.74R
WATERTOWN      CLOUDY    40  30  67 N8        29.72R
HURON          FAIR      45  29  53 NE8       29.73R
SISSETON         N/A     40  30  67 CALM      29.72R
ABERDEEN       FAIR      48  27  44 N9        29.73R
MITCHELL       FAIR      48  30  49 NE8       29.74R
PIERRE         FAIR      46  32  58 NW6       29.70R
MOBRIDGE       FAIR      53  24  32 N9        29.69R
RAPID CITY     CLOUDY    45  32  60 NE10      29.67R
$$

  *****  SOME WEATHER IN NEARBY STATES *****

CITY           SKY/WX    TMP DP  RH WIND       PRES   REMARKS
GLASGOW MT     CLOUDY    53  20  27 E9        29.72R
GREAT FALLS MT CLOUDY    41  35  79 N9        29.80R
CHEYENNE WY    FAIR      46  26  45 NW13G22   29.57R
SCOTTSBLUFF NE FAIR      44  41  89 E13       29.55S
OMAHA NE       MOCLDY    57  32  38 NE3       29.72R
DES MOINES IA  FAIR      52  35  52 N7        29.75R
DAVENPORT IA   FAIR      44  37  76 W7        29.77R
CHICAGO IL     CLOUDY    45  34  65 W15       29.77R
EAU CLAIRE WI  CLOUDY    34  25  69 W13       29.68R WCI  25
LA CROSSE WI   CLOUDY    39  30  70 W15       29.71R
$$

  *****  SOME NATIONAL WEATHER *****

CITY           SKY/WX    TMP DP  RH WIND       PRES   REMARKS
LA GUARDIA NY  FOG       60  57  89 SE10      29.89R VSB 1
RALEIGH NC     CLOUDY    74  62  66 S6        29.88S
ATLANTA GA     FAIR      74  70  87 S7        29.85R
NEW ORLEANS LA FAIR      76  60  57 E7        29.78R
OKLAHOMA CITY  MOCLDY    63  48  58 SE13      29.57F
ALBUQUERQUE NM MOCLDY    64  34  32 N20       29.60R
SALT LAKE CITY PTSUNNY   49  23  36 NW15      29.83R
LOS ANGELES CA FAIR      67  53  61 W14       29.74S
BOISE ID       FAIR      51  24  34 NW23      29.92S
SEATTLE WA     PTSUNNY   53  39  59 W8        30.08S
$$

*** WEATHER ACROSS MANITOBA...SASKATCHEWAN AND ONTARIO ***
                ***ONTARIO***

CITY           SKY/WX    TMP DP  RH WIND       PRES   REMARKS
GERALDTON      FRZ DRZL  30  28  93 NW5       29.30R VSB 1
THUNDER BAY    LGT SNOW  25  21  86 W13G18    29.50R WCI  13
SIOUX LOOKOUT  LGT SNOW  25  21  86 N9G17     29.54R DRFTSNOWWCI  15
TORONTO        MOCLDY    63  61  94 SE7       29.62R
BIG TROUT LK   LGT SNOW  25  16  68 NE15G31   29.76  WCI  12
PICKLE LAKE    LGT SNOW  21  19  93 N14G30    29.51S VSB 5/8 WCI   8
DRYDEN         LGT SNOW  25  23  93 N7        29.57R WCI  17
KENORA         LGT SNOW  27  23  86 N13G21    29.63R DRFTSNOWWCI  16
$$
                *** MANITOBA***

CITY           SKY/WX    TMP DP  RH WIND       PRES   REMARKS
BRANDON        PTCLDY    45  25  45 NE18      29.81R
DAUPHIN        CLEAR     45  12  26 N14       29.87R
ISLAND LAKE    MOCLDY    37   7  28 N14       29.88S
PILOT MOUND      N/A     41  25  52 N17G26      N/A
THE PAS        PTCLDY    45   7  21 N2        29.93S
THOMPSON       MOCLDY    37   7  28 NE9       29.99R
WINNIPEG       PTCLDY    39  25  56 N14G22    29.76S
LYNN LAKE      CLEAR     43   9  24 E5        29.97S
CHURCHILL      CLEAR     28  16  59 S8        30.08R WCI  20
GILLAM         MOCLDY    34   5  29 E5        30.02S
$$
                ***SASKATCHEWAN***

CITY           SKY/WX    TMP DP  RH WIND       PRES   REMARKS
ESTEVAN        PTCLDY    48  14  25 E9        29.79R
KINDERSLEY     CLOUDY    37  34  87 N8        29.78S
LLOYDMINSTER   FLURRIES  34  34 100 NE5       29.86R
PRINCE ALBERT  CLOUDY    48  10  21 E3        29.89R
REGINA         PTSUNNY   48  12  23 E9        29.81R
YORKTON        CLEAR     46  16  29 N15G21    29.83R


USA.gov is the U.S. government's official web portal to all federal, state and local government web resources and services.